Location: Laan Hart van Zuid
(52.2563°N, 6.7904°E)
Time: 11:24:21
(UTC+02:00)

ISS - Pass Details

Date: 19 May 2024
Orbit: 411 x 419 km, 51.6° (Epoch: 29 May)

Event Time Altitude Azimuth Distance (km) Brightness Sun altitude
Rises 00:52:06 0° 282° (WNW) 2,371 0.3 -17.5°
Reaches altitude 10° 00:54:23 10° 270° (W) 1,502 -0.9 -17.5°
Enters shadow 00:56:13 22° 243° (WSW) 959 -2.1 -17.6°
